GFSGBSN_925_thetae_132.txt.gz
Theta_e
316 316 317 317 314 310 309 309 309 309 309 309 309 309 310 310 310 309 309 309 309 310 310 312 307 310 320 323 322 324 323 314 319 317 319 325 332 343 348 342 343 351 355 354 353 352 350
316 316 316 317 317 315 313 311 309 309 309 309 309 309 309 309 309 310 310 310 310 311 311 313 307 312 322 324 325 329 325 321 317 317 318 327 335 337 338 344 347 350 353 354 354 354 351
315 315 315 316 317 317 319 318 315 310 308 309 309 309 309 309 310 311 311 311 311 312 313 310 308 320 323 325 325 322 321 318 315 316 319 321 328 334 333 349 348 350 356 356 355 354 356
315 315 314 314 313 315 317 318 318 316 310 308 308 309 309 311 312 312 312 312 315 316 312 309 316 322 322 320 324 322 321 318 315 315 316 319 323 331 338 350 353 355 353 356 355 355 354
315 314 313 313 313 313 314 315 316 317 316 312 309 309 310 311 311 312 312 314 320 313 313 317 324 323 326 320 321 323 323 323 318 316 315 316 322 333 343 350 350 352 351 352 359 353 355
317 316 314 314 313 313 313 313 314 316 317 317 314 310 309 310 312 312 313 317 319 321 322 321 322 326 323 325 322 323 322 318 318 317 316 321 330 335 339 345 345 344 345 350 357 355 356
318 317 317 315 315 315 314 313 313 313 314 316 316 314 310 311 312 312 315 319 326 327 324 325 325 324 324 323 320 323 321 315 316 317 318 323 329 333 335 340 336 339 342 350 351 354 356
317 317 318 317 316 316 316 314 313 313 313 314 316 315 311 313 311 313 317 323 321 320 326 323 324 324 324 324 322 324 320 322 316 318 319 324 326 330 332 338 337 337 345 350 351 351 353
317 317 317 317 317 317 317 316 315 313 313 313 314 315 312 313 312 317 320 321 317 319 327 325 325 325 325 325 323 323 324 323 320 319 319 321 324 330 330 333 336 338 341 345 347 351 351
316 316 317 317 317 316 316 316 315 315 314 313 313 315 313 311 317 318 320 317 317 318 329 326 326 326 325 323 323 322 323 324 322 321 321 322 326 328 331 331 334 336 338 345 345 347 352
316 315 317 317 317 316 316 315 315 315 315 314 313 314 313 311 317 320 319 317 318 321 329 326 325 324 323 324 323 323 323 323 322 322 323 324 325 328 330 330 331 336 339 343 343 346 348
317 316 317 317 317 316 316 315 315 314 314 315 314 313 313 314 314 316 317 318 320 329 328 327 325 325 325 325 323 323 323 323 322 322 322 324 323 326 327 329 330 336 340 344 344 344 348
317 317 318 318 317 317 316 315 315 315 314 315 315 311 314 313 322 318 317 323 330 326 324 326 327 327 326 326 324 324 323 323 323 324 323 322 323 323 325 327 329 334 336 340 342 346 347
317 317 317 317 317 316 316 316 316 316 315 315 314 312 318 317 316 316 321 328 327 324 324 324 326 328 328 326 326 324 323 324 324 324 324 323 323 323 326 327 330 333 333 335 344 350 350
321 318 316 317 317 316 316 316 316 316 315 315 313 318 320 319 318 318 326 327 325 324 324 324 327 328 328 327 328 325 324 326 326 327 328 324 326 326 330 327 330 331 334 333 338 342 345
321 320 317 316 317 315 315 315 315 316 315 315 316 322 323 319 319 322 328 323 326 324 324 323 326 327 329 328 328 326 326 327 327 326 326 327 330 333 336 337 333 336 333 337 336 346 349
319 318 317 316 317 315 315 314 314 315 315 315 319 323 321 318 319 327 327 325 325 324 324 324 324 327 327 329 329 327 328 329 328 327 326 328 329 335 339 341 339 338 337 336 335 339 351
320 318 317 316 316 315 313 313 312 313 314 317 317 323 320 318 327 327 327 325 319 324 322 323 324 325 327 327 329 329 329 330 326 326 328 327 329 331 333 330 331 339 340 337 338 342 342
321 320 318 317 316 314 312 311 311 310 312 315 321 322 321 321 328 327 326 324 325 324 323 321 322 322 326 326 329 328 328 327 327 327 329 327 329 331 331 332 332 333 335 337 335 341 343
322 321 318 317 315 313 311 311 311 311 312 314 320 324 325 325 326 327 327 326 326 324 323 320 322 324 326 326 326 328 328 327 326 328 325 326 328 330 331 333 333 333 336 336 334 333 333
321 320 319 318 313 312 311 312 311 311 312 315 318 321 326 327 326 326 327 327 326 323 323 322 324 323 324 325 325 326 326 327 326 326 328 328 332 331 333 334 332 333 335 336 336 338 337
320 319 318 317 314 312 312 312 312 311 313 318 323 324 327 330 330 329 324 328 326 325 322 323 324 322 323 324 323 326 326 326 326 327 327 326 332 333 335 334 335 332 332 332 337 338 340
320 318 318 316 313 311 312 312 312 311 313 318 317 319 324 324 329 330 328 327 326 325 321 321 322 323 323 324 325 324 324 326 327 328 327 327 329 332 332 334 332 335 336 336 337 340 339
318 318 318 315 312 311 311 312 312 312 311 314 313 317 320 321 324 329 328 328 328 327 323 319 321 324 324 324 323 324 325 326 326 327 326 328 328 328 330 334 333 335 336 337 338 341 344
317 317 317 314 311 310 311 311 311 311 311 313 312 316 319 322 320 323 329 331 330 326 323 319 322 323 324 323 323 323 324 326 325 327 325 328 328 329 329 330 329 330 335 335 335 336 339
317 316 316 313 310 310 311 311 311 311 311 313 313 312 317 322 322 321 327 329 331 324 321 321 316 321 320 321 322 325 321 322 323 326 326 326 330 329 329 329 330 333 334 333 333 332 336
316 315 314 313 310 309 309 312 312 312 311 312 313 311 315 320 319 322 323 326 327 322 321 321 318 318 320 322 323 323 324 327 325 326 329 328 328 328 328 329 327 331 331 331 335 337 335
315 313 313 313 310 309 309 311 312 312 311 312 314 311 314 320 320 319 321 327 328 324 323 322 319 320 320 323 323 325 325 329 327 327 327 326 327 327 328 330 331 330 331 333 335 335 335
314 312 312 312 309 309 309 311 312 313 312 311 313 312 312 314 319 317 318 319 321 323 327 322 325 322 323 324 325 326 326 329 325 326 330 326 324 328 326 331 333 331 332 331 332 335 336

GFSGBSN_925_thetae_138.txt.gz
Theta_e
316 315 316 316 316 316 317 318 316 312 309 309 309 309 309 309 309 310 310 311 311 311 312 312 311 308 321 332 330 332 321 313 314 323 327 325 328 333 343 344 353 355 355 354 351 349 349
316 316 316 315 315 315 315 316 317 316 313 310 309 309 309 309 310 311 311 311 311 311 314 314 309 311 325 334 326 330 320 317 321 323 324 326 329 334 342 344 352 355 358 354 353 354 350
317 316 315 315 315 314 314 314 314 316 317 316 314 312 310 310 310 311 311 311 312 317 318 312 310 320 330 328 325 325 321 319 321 322 323 325 329 337 339 341 350 354 356 354 355 355 355
317 316 316 315 316 315 315 314 313 313 314 315 315 314 312 311 311 311 311 311 314 320 316 313 316 325 328 325 326 324 323 321 319 320 322 324 329 334 337 344 345 346 350 359 356 357 354
317 316 317 316 317 317 316 316 314 313 313 313 314 314 313 312 311 311 311 313 317 319 318 318 325 330 330 323 323 325 324 322 320 319 320 321 324 332 334 348 349 344 348 357 351 353 356
316 316 316 316 317 317 317 316 316 315 315 314 313 313 314 313 312 311 312 318 318 319 328 326 327 330 327 327 325 324 325 323 320 320 320 320 324 331 334 337 345 349 347 350 353 358 358
316 317 317 316 317 316 316 316 315 315 315 315 315 313 313 313 312 311 314 324 330 330 330 330 328 326 325 324 324 325 323 321 322 320 319 320 325 329 333 335 342 344 345 350 358 354 356
319 318 318 317 317 317 316 316 316 316 315 315 316 314 313 313 311 311 314 328 326 326 329 325 325 325 325 325 325 324 321 320 320 321 320 322 323 327 331 333 339 342 342 345 351 350 351
320 320 320 319 318 318 317 317 316 317 316 315 315 315 314 313 311 313 322 327 325 326 330 327 327 327 326 327 326 325 322 324 321 321 321 322 324 325 329 332 340 340 340 346 348 344 346
321 321 320 320 319 318 318 317 317 317 317 316 316 316 314 314 316 325 326 325 325 326 331 329 327 326 326 327 325 324 325 326 324 323 322 322 324 325 327 329 335 334 339 342 346 342 343
321 321 321 319 320 319 318 318 318 317 317 317 316 316 315 313 316 323 326 325 325 327 338 329 328 327 327 327 326 324 324 325 327 325 323 323 323 327 330 332 331 332 336 337 340 344 340
321 321 321 320 320 319 319 318 318 318 317 317 317 316 315 317 315 318 323 324 326 331 336 330 328 328 327 327 325 324 324 325 325 324 324 326 327 326 327 329 330 331 338 339 342 343 341
320 320 320 320 320 320 319 318 318 318 317 317 317 316 315 314 325 325 324 326 330 333 329 329 329 328 329 328 326 325 325 325 325 326 325 324 325 325 326 328 329 330 331 335 338 338 343
320 320 320 320 319 320 319 318 317 317 317 317 318 317 315 315 319 322 324 328 334 335 328 328 327 328 329 328 327 326 326 327 326 325 328 327 326 324 325 327 329 330 330 332 345 350 355
323 322 322 321 320 319 319 317 317 316 317 316 317 321 319 320 318 322 327 330 334 334 327 326 328 329 331 329 329 328 326 328 328 328 329 331 327 325 325 324 325 328 331 329 331 336 342
324 323 323 322 321 319 319 316 316 316 317 316 317 321 323 320 321 323 328 328 331 329 326 325 327 331 333 332 329 328 327 327 328 327 327 330 333 332 325 327 325 326 329 335 331 339 346
325 325 324 323 322 319 319 315 315 315 316 318 321 323 323 323 324 327 330 329 330 327 326 326 326 327 329 332 330 331 329 329 328 329 326 328 329 332 331 333 331 332 329 342 340 344 348
324 324 324 323 322 320 318 315 313 313 314 319 322 325 325 325 327 328 329 328 327 328 326 326 325 327 329 330 329 330 330 332 329 328 329 330 331 335 337 333 334 333 333 339 341 354 353
324 324 323 323 322 320 318 314 313 313 312 314 325 325 326 326 326 327 328 328 330 328 326 325 325 325 326 328 329 332 331 330 329 327 330 331 331 331 338 339 337 334 334 337 336 338 347
325 324 323 322 321 319 317 313 313 313 312 314 325 324 325 328 326 326 329 330 330 327 325 326 325 325 325 325 328 331 330 329 328 327 330 327 329 329 331 338 339 335 338 336 337 339 336
325 324 323 321 320 318 316 313 312 313 312 315 324 324 324 326 328 326 327 329 331 329 326 326 326 324 325 327 327 328 327 327 330 334 327 327 328 329 330 334 336 333 333 337 339 339 342
324 323 322 319 318 318 314 312 312 313 313 318 326 328 328 327 328 331 323 328 329 331 328 327 326 325 325 326 327 328 328 328 328 330 331 328 330 330 329 331 333 335 334 334 333 336 341
322 322 321 318 317 317 314 312 313 312 313 321 323 324 326 324 324 327 330 327 327 329 330 328 327 326 326 326 326 325 325 325 326 328 330 329 331 332 334 334 335 336 338 339 338 338 340
320 320 318 318 317 317 313 311 312 312 312 316 320 321 325 326 323 323 324 327 329 328 330 329 328 326 326 326 326 324 323 324 325 324 326 328 329 330 331 331 335 335 333 335 338 336 338
319 317 317 317 317 315 312 311 312 312 312 314 318 320 325 329 327 323 324 324 327 328 328 328 328 326 327 326 326 325 326 327 327 326 326 325 326 327 331 329 331 335 333 332 336 335 337
316 316 318 317 316 315 311 310 311 312 312 313 318 319 321 325 326 325 326 325 325 330 330 329 329 325 325 326 326 327 328 328 329 329 327 326 326 326 329 333 334 338 335 332 330 331 336
316 316 317 316 316 314 311 310 310 312 312 312 316 317 319 323 322 324 326 325 325 327 330 331 330 326 324 326 325 326 328 327 327 326 328 330 328 327 328 328 330 335 333 332 330 341 338
316 316 316 315 314 313 310 310 310 311 312 313 316 317 317 321 321 321 322 325 325 327 332 332 330 325 325 328 325 326 328 328 329 327 327 329 329 325 326 330 336 334 333 338 339 336 336
315 315 315 314 313 312 310 310 309 311 312 313 316 317 315 316 319 317 318 320 321 323 326 331 327 330 325 324 325 327 329 329 332 330 327 330 328 328 329 333 335 333 335 333 332 334 336

GFSGBSN_925_thetae_141.txt.gz
Theta_e
317 317 317 316 314 314 315 315 316 316 314 312 310 309 309 309 310 310 310 310 311 311 312 313 312 308 321 329 329 330 323 317 313 313 325 326 324 327 329 342 355 360 358 353 350 351 351
317 317 317 316 315 315 314 314 313 315 316 315 314 312 311 310 310 310 310 310 311 311 316 314 310 312 323 333 330 324 318 314 317 321 323 325 323 325 329 346 352 353 348 353 351 355 351
316 317 317 316 316 316 316 315 313 313 313 313 314 314 313 312 311 311 310 311 311 312 318 312 311 321 327 332 325 324 320 317 321 322 322 323 324 326 334 341 346 345 351 353 357 356 355
317 317 316 317 316 316 316 316 316 315 314 314 313 313 313 313 312 311 311 311 313 316 317 312 314 324 331 325 326 324 323 320 320 321 321 321 323 328 331 343 350 355 357 361 354 347 354
316 316 316 316 317 316 315 315 316 316 316 315 314 314 313 313 312 311 311 312 317 317 316 319 323 325 333 324 322 325 322 322 320 318 319 321 321 322 325 334 341 346 353 360 355 348 347
318 318 317 317 317 317 316 316 316 316 316 315 315 315 313 313 312 311 312 315 322 317 326 326 325 328 329 327 324 325 325 324 319 317 318 318 318 320 325 329 344 349 350 352 353 354 353
320 320 320 319 318 318 317 317 317 316 316 316 315 315 315 313 312 311 313 321 327 326 326 329 330 330 325 324 322 324 324 322 321 319 316 317 318 321 324 328 338 344 346 353 350 349 360
321 321 320 320 320 319 318 318 317 317 317 317 316 316 316 314 312 311 311 322 327 325 326 328 330 324 325 325 324 323 322 319 320 319 317 316 316 320 325 327 334 342 345 357 355 355 357
321 321 321 319 319 319 319 318 318 318 317 317 317 316 316 314 313 313 315 324 327 326 326 328 325 325 324 325 326 322 319 318 318 319 318 316 319 321 323 326 331 339 341 351 350 347 346
321 321 321 321 320 320 319 319 318 318 318 318 317 317 316 315 317 320 324 326 326 325 327 331 325 324 325 325 324 323 322 321 324 320 319 319 320 322 323 325 327 337 340 345 349 348 347
322 321 321 321 321 319 320 318 318 318 318 318 318 317 317 315 312 317 324 323 324 325 336 329 327 326 326 325 323 323 325 324 324 325 323 320 321 321 326 326 330 332 335 336 340 340 340
321 321 321 321 321 321 320 319 318 317 318 318 318 318 317 318 319 317 321 323 324 328 335 330 327 326 326 325 324 324 323 323 324 324 324 322 324 325 326 327 327 329 335 338 338 336 343
322 323 322 322 322 321 320 320 317 317 317 317 318 318 316 316 319 323 320 324 328 331 333 329 327 327 326 327 324 323 323 323 322 323 322 323 323 324 325 325 325 327 327 331 342 343 346
323 323 323 323 323 322 321 319 317 316 317 317 318 319 318 317 314 316 322 325 332 333 335 328 327 327 328 328 325 324 325 324 324 324 322 325 323 322 324 325 327 327 326 326 344 344 345
323 324 324 324 324 323 322 319 317 316 316 316 318 318 321 321 314 316 324 329 332 333 330 326 326 326 328 328 328 327 324 324 326 326 326 327 324 323 323 324 324 323 328 325 325 331 341
323 323 323 323 324 323 322 319 317 315 316 316 319 320 322 323 320 320 324 327 328 329 329 325 325 328 333 332 328 328 326 326 328 327 326 327 331 331 325 323 323 322 323 326 337 343 345
323 323 324 324 324 323 321 319 316 314 315 317 320 326 323 320 320 322 327 328 327 327 328 325 325 326 327 333 332 330 330 326 327 327 326 324 327 332 329 334 334 332 325 337 339 344 349
324 324 324 324 323 323 321 319 314 313 313 315 321 326 324 323 325 326 327 327 324 327 327 325 325 325 326 330 330 331 333 331 328 327 329 329 328 331 336 334 333 334 334 336 337 347 344
324 324 324 324 323 322 320 318 314 313 312 312 321 324 324 325 326 325 326 327 327 327 327 325 325 325 324 325 330 330 332 329 328 329 329 327 330 331 337 335 334 335 333 334 333 338 346
323 324 324 324 322 321 319 317 313 312 312 313 321 328 325 326 326 326 326 326 327 327 328 326 326 324 325 325 324 330 331 330 327 328 328 326 325 328 329 337 337 336 334 335 335 335 340
323 323 324 323 322 319 318 316 313 313 312 313 323 325 327 329 328 326 327 326 326 327 329 325 327 327 325 325 326 326 329 329 328 335 327 324 326 328 326 335 334 333 333 334 336 338 340
322 322 322 322 321 318 318 315 313 313 312 316 323 327 326 328 327 326 325 329 326 326 329 330 327 327 324 326 326 329 328 329 330 328 328 327 326 330 331 330 335 335 336 337 334 335 339
321 321 321 322 319 317 317 314 312 312 314 320 320 322 325 326 327 325 324 325 325 326 327 331 329 326 326 326 324 325 323 321 323 328 330 331 331 331 331 332 335 337 336 337 335 335 335
318 319 319 318 318 317 317 313 311 312 312 314 317 320 324 327 327 327 326 324 324 326 327 328 329 329 328 324 324 323 322 322 323 322 321 328 329 329 329 330 332 334 332 333 337 339 340
317 317 317 317 318 317 316 312 311 312 312 313 315 320 323 326 327 327 328 327 327 326 326 330 329 327 323 326 327 326 325 327 327 326 325 322 329 327 328 329 332 335 333 331 337 342 338
315 316 316 316 317 316 315 312 311 311 312 312 315 319 320 323 324 323 324 326 327 327 329 331 329 327 325 328 328 330 329 331 330 330 328 325 328 324 325 331 337 337 334 332 334 348 340
314 316 316 317 317 316 315 312 310 310 312 312 315 317 319 321 320 320 323 325 325 327 328 332 332 330 327 327 328 328 329 330 330 330 330 330 329 329 328 329 337 335 334 331 335 341 339
314 315 315 315 315 314 314 311 310 310 312 313 315 317 317 319 318 318 318 321 322 326 331 330 332 331 328 327 328 328 329 331 329 331 331 332 333 328 327 327 341 334 335 340 338 337 339
313 314 315 315 314 313 313 310 310 310 312 313 315 317 317 316 317 315 315 315 317 321 324 326 333 329 329 329 329 330 330 330 334 332 332 331 330 333 328 337 335 332 333 333 333 336 336

GFSGBSN_925_thetae_147.txt.gz
Theta_e
316 317 317 316 315 315 315 315 315 316 315 315 314 313 312 312 311 311 311 310 310 310 314 315 311 310 321 326 328 330 326 316 318 316 315 321 325 324 344 347 346 345 353 351 349 348 349
317 317 317 316 316 316 316 316 316 315 315 315 314 314 313 313 312 311 311 310 311 311 316 314 311 319 324 329 330 329 327 320 318 314 317 323 325 323 323 341 343 342 354 352 349 350 348
318 319 318 318 318 317 317 316 316 316 316 315 315 315 314 314 313 312 311 311 311 313 317 313 313 322 325 324 329 321 315 314 313 313 318 321 323 321 325 347 347 351 356 356 354 352 351
319 318 318 318 318 318 318 318 317 317 317 316 316 316 315 315 314 313 311 311 312 316 316 315 316 323 327 329 326 321 319 317 314 316 320 321 321 317 338 343 346 351 354 357 355 352 353
320 320 320 319 319 319 318 318 318 317 317 317 317 316 316 316 315 313 312 312 314 318 316 320 324 324 324 326 322 323 322 321 319 317 318 318 317 318 334 343 348 355 357 355 356 352 353
320 320 320 320 321 320 319 319 318 318 317 317 317 317 317 316 316 314 312 314 319 319 323 324 324 322 322 327 322 322 323 323 318 316 314 315 312 316 317 324 338 347 356 354 355 355 350
321 321 321 322 322 321 321 320 319 318 318 317 317 317 318 317 316 314 313 315 318 319 327 321 322 323 324 326 323 322 323 320 317 314 313 312 313 316 318 323 328 341 350 353 350 352 353
322 322 322 322 322 322 322 322 320 319 318 318 317 317 318 318 317 313 313 315 322 321 321 321 323 324 326 324 322 322 321 318 317 317 314 311 312 313 316 318 322 324 347 352 351 353 357
321 322 322 323 322 323 323 322 322 319 319 318 317 317 317 318 316 316 314 317 320 317 320 321 323 325 325 323 322 321 318 317 317 316 315 312 314 314 315 316 318 318 345 353 350 352 352
321 322 322 323 323 323 324 323 322 320 319 319 318 317 317 318 315 315 315 319 317 317 320 323 326 325 321 321 323 321 319 316 316 316 313 314 315 315 315 316 316 319 345 350 343 348 352
321 321 322 322 323 323 323 323 322 320 319 319 318 317 317 317 317 315 316 315 318 319 331 328 325 323 320 322 322 322 317 318 319 321 319 321 318 316 316 316 319 323 344 340 342 344 337
322 322 322 322 323 323 323 323 322 320 319 318 317 316 316 316 316 317 316 316 320 322 330 329 323 322 322 322 321 320 321 320 320 322 320 320 319 319 320 323 324 334 334 328 331 333 337
323 323 323 323 323 323 324 323 322 320 319 317 317 317 314 315 316 317 316 317 321 325 325 329 324 322 322 321 322 320 320 320 320 319 319 319 320 320 322 323 321 320 322 328 340 339 338
324 324 324 324 324 324 324 324 322 319 318 317 316 316 317 318 319 316 317 318 327 326 327 326 324 322 322 321 320 319 320 319 319 318 317 320 321 320 321 321 321 322 319 323 330 341 337
322 323 324 324 324 324 323 323 322 319 318 315 314 316 317 319 318 317 315 321 320 323 325 325 321 323 323 323 320 320 319 318 319 316 320 319 324 320 320 320 320 321 319 319 321 324 329
321 322 322 322 323 323 322 323 321 318 317 314 313 316 318 320 317 316 318 321 321 322 323 322 323 321 322 324 321 319 319 320 321 318 318 321 325 325 327 323 327 319 317 320 327 335 338
319 319 320 320 322 323 322 321 320 317 316 314 316 316 317 319 315 313 321 321 322 322 323 323 324 323 321 324 324 321 322 324 323 321 318 320 322 327 329 330 331 328 331 332 331 331 338
317 318 319 322 323 323 321 321 319 315 314 313 310 315 318 316 311 310 315 320 321 323 322 323 321 320 321 321 324 327 326 325 323 322 326 323 322 331 333 330 329 329 331 328 329 337 334
316 318 319 321 322 323 322 321 318 314 312 312 309 311 320 318 315 316 317 321 322 324 323 324 323 323 320 320 323 326 327 325 324 324 323 322 323 331 328 322 325 330 329 327 327 328 335
314 317 318 319 322 322 322 321 317 314 312 312 311 318 317 316 315 322 324 324 324 324 323 322 322 322 320 319 319 322 327 326 325 324 337 323 317 323 324 323 325 333 332 329 327 332 333
314 316 318 319 321 321 320 319 317 314 313 313 312 319 319 323 322 322 323 323 325 323 322 320 322 322 322 318 319 321 323 325 324 339 320 318 321 321 321 321 330 329 331 331 331 328 334
313 314 315 318 319 319 319 317 316 313 313 316 317 319 316 317 318 321 320 321 324 327 322 323 322 324 322 317 318 322 322 323 324 325 322 316 320 319 328 327 329 332 330 331 332 332 337
313 313 315 316 318 318 318 317 315 312 312 312 314 315 316 316 319 321 320 325 326 326 325 323 324 323 324 323 319 317 318 318 321 321 322 322 321 321 327 323 329 331 332 332 332 332 336
313 313 313 314 316 317 317 316 315 312 312 312 313 313 315 319 321 322 323 322 325 324 325 325 324 323 324 318 316 315 314 314 317 318 318 320 319 318 322 321 327 322 327 330 334 337 337
312 312 313 314 315 316 317 315 315 311 311 312 312 313 314 318 321 321 320 320 317 317 322 325 325 327 324 319 319 319 318 321 321 317 316 316 317 319 321 321 323 332 331 335 334 336 338
311 312 313 313 315 316 316 315 314 312 310 311 312 312 315 319 319 320 320 318 316 322 325 325 322 323 323 320 322 322 322 321 323 324 316 315 314 319 317 322 326 325 330 330 330 337 336
310 311 312 314 315 316 316 315 314 311 310 310 312 313 315 318 316 316 319 320 317 320 322 325 325 327 325 322 322 323 324 325 327 325 324 321 319 319 320 320 322 323 331 330 330 331 335
308 310 312 314 315 314 314 313 313 311 310 311 312 314 315 317 314 315 315 316 316 317 321 323 325 326 331 331 324 322 323 325 324 323 321 321 323 322 318 329 328 328 330 330 326 334 334
306 307 311 313 314 314 313 312 312 310 310 311 311 314 313 314 314 315 315 315 315 315 317 319 325 327 331 329 326 325 325 326 323 328 325 328 322 323 320 320 318 326 326 330 330 333 333